Weather in Mykhailyky

Ukraine / Poltava Region     49°58′06″N   34°08′44″E
temp.,
°C
wind,
m/s
gust,
m/s
humid.,
%
clouds,
%
prec.,
mm/h
press.,
hPa
HPBL,
m
13 april, tue
tue1300:00+10s2386100 0.0 102186
03:00+10sse2388100 0.0 102194
06:00+10se2287100 0.0 102137
09:00+11se2481100 0.0 1021265
12:00+11s347546 0.0 1021435
15:00+13sse4567100 0.0 1020917
18:00+13sse3569100 0.0 1020480
21:00+10sse367881 0.0 1020144
14 april, wed
wed1400:00+10se3577100 0.0 1019131
03:00+10se3479100 0.0 1018108
06:00+9se3583100 0.0 1018134
09:00+9sse2487100 0.2 1018155
12:00+12s2273100 0.0 1017514
15:00+15ssw335743 0.3 10161196
18:00+15ssw2354100 0.0 1014781
21:00+12s2366100 0.1 101550
15 april, thu
thu1500:00+11sse226898 0.0 101437
03:00+8s347582 0.0 101465
06:00+7se337761 0.0 101444
09:00+11se4662100 0.0 1014526
12:00+14sse565377 0.0 10131371
15:00+15sse554897 0.1 10111762
18:00+11sse5882100 0.6 1012633
21:00+9sse2685100 0.7 1012446
16 april, fri
fri1600:00+8se379165 0.0 1012209
03:00+8sse478350 0.1 1012404
06:00+7sse4781100 0.1 1012385
09:00+8s577162 0.1 1013902
12:00+10sse675983 0.1 10141528
15:00+11sse675396 0.3 10141555
18:00+10se465858 0.1 10151234
21:00+8sw2476100 0.4 1017306
17 april, sat
sat1700:00+6e118322 0.0 101710
03:00+5e118318 0.0 101810
06:00+5ese1183100 0.0 101910
09:00+8wsw2266100 0.0 1019295
12:00+11w3353100 0.0 10191306
15:00+11nnw3354100 0.1 10191048
18:00+10n4466100 0.0 1020627
21:00+7ne338292 0.0 102163